Weather History for Charlotte, NC

Change the Weather History Date:

Sunday, December 16, 2012

  Actual Average Record
Temperature  
Mean Temperature 54 °F 42 °F  
Max Temperature 58 °F 53 °F 75 °F (1971)
Min Temperature 49 °F 32 °F 12 °F (1958)
Degree Days  
Heating Degree Days 11 23  
Month to date heating degree days 188 339  
Since 1 July heating degree days 874 975  
Cooling Degree Days 0 0  
Month to date cooling degree days 0 0  
Year to date cooling degree days 1790 1517  
Growing Degree Days 2 (Base 50)    
Moisture  
Dew Point 50 °F    
Average Humidity 76    
Maximum Humidity 100    
Minimum Humidity 52    
Precipitation  
Precipitation 0.37 in 0.10 in 1.58 in (1970)
Month to date precipitation 0.61 1.69  
Year to date precipitation 30.46 40.07  
Snow  
Snow 0.00 in 0.00 in 3.00 in (1973)
Month to date snowfall 0.0 0.0  
Since 1 July snowfall 0.0 0.1  
Snow Depth 0.00 in    
Sea Level Pressure  
Sea Level Pressure 30.01 in    
Wind  
Wind Speed 4 mph (SW)    
Max Wind Speed 10 mph    
Max Gust Speed 14 mph    
Visibility 6 miles    
Events Rain    
T = Trace of Precipitation, MM = Missing Value Source: NWS Daily Summary

Daily Weather History Graph

Daily Weather History Graph

Search for Another Location

Airport:

Trip Planner

Search our weather history database for the weather conditions in past years. The results will help you decide how hot, cold, wet, or windy it might be!

Date:

Astronomy

Dec. 16, 2012 Rise Set
Actual Time 7:25 AM EST 5:13 PM EST
Civil Twilight 6:57 AM EST 5:41 PM EST
Nautical Twilight 6:25 AM EST 6:13 PM EST
Astronomical Twilight 5:54 AM EST 6:44 PM EST
Moon 10:04 AM EST (12/16) 9:18 PM EST (12/16)
Length of Visible Light 10h 44m
Length of Day
9h 47m
Waxing Crescent, 16% of the Moon is Illuminated
Dec 16
Waxing Crescent
Dec 20
First Quarter
Dec 28
Full
Jan 4
Last Quarter
Jan 11
New

Hourly Weather History & Observations

Time (EST) Temp. Dew Point Humidity Pressure Visibility Wind Dir Wind Speed Gust Speed Precip Events Conditions
12:24 AM 51.8 °F 37.4 °F 58% 30.08 in 10.0 mi South 3.5 mph - N/A   Overcast
12:32 AM 51.8 °F 37.4 °F 58% 30.09 in 10.0 mi SSW 3.5 mph - N/A   Overcast
12:52 AM 51.1 °F 39.9 °F 66% 30.07 in 10.0 mi South 3.5 mph - N/A   Overcast
1:13 AM 51.8 °F 44.6 °F 76% 30.07 in 8.0 mi Calm Calm - 0.00 in Rain Light Rain
1:52 AM 50.0 °F 46.0 °F 86% 30.06 in 9.0 mi South 5.8 mph - 0.00 in   Overcast
2:40 AM 50.0 °F 46.4 °F 87% 30.05 in 9.0 mi SSE 4.6 mph - N/A   Overcast
2:52 AM 51.8 °F 46.4 °F 82% 30.05 in 9.0 mi South 4.6 mph - N/A   Overcast
3:43 AM 51.8 °F 48.2 °F 88% 30.06 in 7.0 mi WSW 4.6 mph - N/A   Overcast
3:52 AM 51.1 °F 48.0 °F 89% 30.05 in 7.0 mi Calm Calm - N/A   Overcast
4:18 AM 51.8 °F 48.2 °F 88% 30.06 in 7.0 mi Calm Calm - N/A   Mostly Cloudy
4:52 AM 50.0 °F 46.9 °F 89% 30.05 in 7.0 mi SSW 4.6 mph - N/A   Overcast
5:52 AM 51.8 °F 46.4 °F 82% 30.05 in 7.0 mi SSW 4.6 mph - N/A   Overcast
6:52 AM 50.0 °F 46.9 °F 89% 30.05 in 7.0 mi South 5.8 mph - N/A   Overcast
7:42 AM 50.0 °F 48.2 °F 94% 30.05 in 8.0 mi Calm Calm - N/A   Overcast
7:52 AM 51.1 °F 48.0 °F 89% 30.05 in 8.0 mi South 3.5 mph - N/A   Overcast
8:52 AM 52.0 °F 48.9 °F 89% 30.06 in 8.0 mi South 3.5 mph - N/A   Overcast
9:29 AM 53.6 °F 50.0 °F 88% 30.07 in 8.0 mi WSW 5.8 mph - N/A   Overcast
9:52 AM 54.0 °F 50.0 °F 86% 30.06 in 8.0 mi SW 4.6 mph - N/A   Overcast
10:42 AM 55.4 °F 50.0 °F 82% 30.06 in 8.0 mi SSW 8.1 mph - N/A   Overcast
10:52 AM 55.0 °F 50.0 °F 83% 30.05 in 8.0 mi SSW 6.9 mph - N/A   Overcast
11:46 AM 55.4 °F 51.8 °F 88% 30.03 in 8.0 mi SSW 6.9 mph - N/A   Overcast
11:52 AM 55.9 °F 51.1 °F 84% 30.03 in 8.0 mi SSW 5.8 mph - N/A   Overcast
12:31 PM 55.4 °F 51.8 °F 88% 30.03 in 8.0 mi WSW 5.8 mph - 0.00 in Rain Light Rain
12:52 PM 55.9 °F 51.1 °F 84% 30.01 in 8.0 mi SW 4.6 mph - 0.00 in   Overcast
1:06 PM 55.4 °F 51.8 °F 88% 30.00 in 8.0 mi SSW 4.6 mph - 0.00 in Rain Light Rain
1:52 PM 57.9 °F 52.0 °F 81% 29.97 in 8.0 mi South 9.2 mph - 0.00 in   Overcast
2:48 PM 57.2 °F 53.6 °F 88% 29.97 in 8.0 mi SSW 8.1 mph - 0.01 in Rain Light Rain
2:52 PM 55.9 °F 54.0 °F 93% 29.96 in 8.0 mi SSW 5.8 mph - 0.01 in Rain Light Rain
3:35 PM 55.4 °F 53.6 °F 94% 29.98 in 7.0 mi Calm Calm - 0.01 in Rain Light Rain
3:52 PM 55.9 °F 54.0 °F 93% 29.98 in 4.0 mi WSW 3.5 mph - 0.03 in Rain Rain
4:16 PM 55.4 °F 53.6 °F 94% 29.97 in 4.0 mi Calm Calm - 0.03 in Rain Light Rain
4:37 PM 55.4 °F 53.6 °F 94% 29.96 in 4.0 mi Calm Calm - 0.04 in Rain Light Rain
4:52 PM 55.0 °F 54.0 °F 96% 29.96 in 2.5 mi SSW 3.5 mph - 0.05 in Rain Light Rain
5:52 PM 55.0 °F 54.0 °F 96% 29.96 in 2.5 mi South 4.6 mph - 0.02 in Rain Light Rain
6:52 PM 55.0 °F 54.0 °F 96% 29.96 in 2.5 mi SW 3.5 mph - 0.01 in Rain Light Rain
7:52 PM 55.0 °F 54.0 °F 96% 29.94 in 2.0 mi Calm Calm - 0.01 in Rain Light Rain
8:52 PM 55.0 °F 54.0 °F 96% 29.94 in 1.8 mi Calm Calm - 0.03 in Rain Rain
9:50 PM 53.6 °F 53.6 °F 100% 29.95 in 1.5 mi WNW 3.5 mph - 0.06 in Rain Rain
9:52 PM 54.0 °F 54.0 °F 100% 29.94 in 1.5 mi WNW 3.5 mph - 0.06 in Rain Rain
10:52 PM 54.0 °F 54.0 °F 100% 29.92 in 2.0 mi NW 3.5 mph - 0.05 in Rain Rain
11:11 PM 53.6 °F 53.6 °F 100% 29.93 in 2.0 mi WNW 3.5 mph - 0.03 in Rain Rain
11:40 PM 53.6 °F 53.6 °F 100% 29.94 in 2.0 mi WNW 3.5 mph - 0.07 in Rain Rain
11:52 PM 54.0 °F 53.1 °F 97% 29.92 in 2.0 mi NW 4.6 mph - 0.09 in Rain Rain